Tiempo cada hora Golanka

Hoy, 25 Junio, Viernes

Tiempo Temperatura Precipitaciones Viento Presión Humedad
00:00 +20°C° 0.7 mm 2 mps 750 mmHg 96%
01:00 +20°C° 0.7 mm 2 mps 750 mmHg 96%
02:00 +20°C° 0 mm 2 mps 750 mmHg 97%
03:00 +19°C° 0 mm 2 mps 750 mmHg 97%
04:00 +19°C° 0 mm 2 mps 750 mmHg 98%
05:00 +20°C° 0 mm 2 mps 750 mmHg 95%
06:00 +20°C° 0 mm 3 mps 750 mmHg 93%
07:00 +20°C° 0 mm 3 mps 751 mmHg 90%
08:00 +21°C° 0 mm 3 mps 751 mmHg 86%
09:00 +22°C° 0 mm 3 mps 751 mmHg 82%
10:00 +23°C° 0 mm 2 mps 751 mmHg 78%
11:00 +24°C° 0 mm 3 mps 751 mmHg 74%
12:00 +25°C° 0 mm 3 mps 751 mmHg 69%
13:00 +26°C° 0 mm 3 mps 751 mmHg 65%
14:00 +25°C° 0.1 mm 3 mps 751 mmHg 67%
15:00 +25°C° 0.1 mm 3 mps 750 mmHg 69%
16:00 +25°C° 0.1 mm 4 mps 750 mmHg 71%
17:00 +22°C° 0 mm 4 mps 750 mmHg 74%
18:00 +21°C° 0 mm 4 mps 751 mmHg 77%
19:00 +20°C° 0 mm 4 mps 751 mmHg 80%
20:00 +19°C° 0 mm 3 mps 751 mmHg 82%
21:00 +18°C° 0 mm 3 mps 751 mmHg 84%
22:00 +17°C° 0 mm 3 mps 752 mmHg 85%
23:00 +17°C° 0 mm 3 mps 752 mmHg 87%

Mañana, 26 Junio, Sábado

Tiempo Temperatura Precipitaciones Viento Presión Humedad
00:00 +16°C° 0 mm 3 mps 752 mmHg 89%
01:00 +14°C° 0 mm 3 mps 752 mmHg 90%
02:00 +14°C° 0 mm 3 mps 752 mmHg 90%
03:00 +14°C° 0 mm 2 mps 752 mmHg 89%
04:00 +14°C° 0 mm 2 mps 752 mmHg 88%
05:00 +16°C° 0 mm 3 mps 752 mmHg 82%
06:00 +17°C° 0 mm 3 mps 753 mmHg 75%
07:00 +19°C° 0 mm 3 mps 753 mmHg 68%
08:00 +20°C° 0 mm 3 mps 753 mmHg 64%
09:00 +22°C° 0 mm 3 mps 753 mmHg 61%
10:00 +24°C° 0 mm 3 mps 753 mmHg 57%
11:00 +24°C° 0 mm 3 mps 753 mmHg 56%
12:00 +24°C° 0 mm 3 mps 753 mmHg 56%
13:00 +25°C° 0 mm 3 mps 753 mmHg 55%
14:00 +25°C° 0 mm 3 mps 753 mmHg 55%
15:00 +25°C° 0 mm 3 mps 753 mmHg 55%
16:00 +25°C° 0 mm 2 mps 752 mmHg 55%
17:00 +24°C° 0 mm 2 mps 752 mmHg 60%
18:00 +23°C° 0 mm 2 mps 752 mmHg 64%
19:00 +21°C° 0 mm 2 mps 752 mmHg 68%
20:00 +20°C° 0 mm 2 mps 753 mmHg 73%
21:00 +18°C° 0 mm 2 mps 753 mmHg 77%
22:00 +17°C° 0 mm 2 mps 753 mmHg 82%
23:00 +16°C° 0 mm 2 mps 753 mmHg 85%

Pasado mañana, 27 Junio, Domingo

Tiempo Temperatura Precipitaciones Viento Presión Humedad
00:00 +16°C° 0 mm 2 mps 753 mmHg 88%
01:00 +15°C° 0 mm 2 mps 753 mmHg 92%
02:00 +15°C° 0 mm 2 mps 753 mmHg 92%
03:00 +14°C° 0 mm 2 mps 753 mmHg 92%
04:00 +14°C° 0 mm 1 mps 753 mmHg 92%
05:00 +16°C° 0 mm 1 mps 753 mmHg 85%
06:00 +18°C° 0 mm 2 mps 753 mmHg 78%
07:00 +20°C° 0 mm 2 mps 753 mmHg 71%
08:00 +21°C° 0 mm 2 mps 753 mmHg 65%
09:00 +23°C° 0 mm 2 mps 753 mmHg 59%
10:00 +24°C° 0 mm 2 mps 754 mmHg 54%
11:00 +25°C° 0 mm 2 mps 753 mmHg 51%
12:00 +26°C° 0 mm 2 mps 753 mmHg 47%
13:00 +26°C° 0 mm 2 mps 753 mmHg 44%
14:00 +26°C° 0 mm 2 mps 753 mmHg 46%
15:00 +26°C° 0 mm 3 mps 753 mmHg 47%
16:00 +26°C° 0 mm 3 mps 753 mmHg 49%
17:00 +24°C° 0 mm 3 mps 753 mmHg 54%
18:00 +22°C° 0 mm 3 mps 753 mmHg 60%
19:00 +21°C° 0 mm 2 mps 753 mmHg 65%
20:00 +19°C° 0 mm 2 mps 753 mmHg 70%
21:00 +18°C° 0 mm 2 mps 753 mmHg 75%
22:00 +16°C° 0 mm 1 mps 753 mmHg 80%
23:00 +16°C° 0 mm 1 mps 753 mmHg 82%

28 Junio, Lunes

Tiempo Temperatura Precipitaciones Viento Presión Humedad
00:00 +15°C° 0 mm 1 mps 753 mmHg 85%
01:00 +15°C° 0 mm 1 mps 754 mmHg 87%
02:00 +15°C° 0 mm 1 mps 753 mmHg 87%
03:00 +14°C° 0 mm 0 mps 753 mmHg 86%
04:00 +14°C° 0 mm 0 mps 753 mmHg 86%
05:00 +18°C° 0 mm 1 mps 753 mmHg 80%
06:00 +19°C° 0 mm 1 mps 753 mmHg 73%
07:00 +21°C° 0 mm 1 mps 754 mmHg 67%
08:00 +23°C° 0 mm 1 mps 754 mmHg 62%
09:00 +24°C° 0 mm 2 mps 754 mmHg 57%
10:00 +25°C° 0 mm 2 mps 754 mmHg 52%
11:00 +26°C° 0 mm 2 mps 753 mmHg 49%
12:00 +27°C° 0 mm 2 mps 753 mmHg 45%
13:00 +28°C° 0 mm 2 mps 753 mmHg 42%
14:00 +27°C° 0 mm 2 mps 753 mmHg 46%
15:00 +27°C° 0 mm 2 mps 753 mmHg 50%
16:00 +26°C° 0 mm 2 mps 752 mmHg 54%
17:00 +25°C° 0 mm 2 mps 752 mmHg 59%
18:00 +24°C° 0 mm 2 mps 752 mmHg 64%
19:00 +23°C° 0 mm 2 mps 752 mmHg 69%
20:00 +21°C° 0 mm 2 mps 752 mmHg 75%
21:00 +19°C° 0 mm 2 mps 752 mmHg 80%
22:00 +18°C° 0 mm 2 mps 752 mmHg 86%
23:00 +18°C° 0 mm 1 mps 752 mmHg 86%

29 Junio, Martes

Tiempo Temperatura Precipitaciones Viento Presión Humedad
00:00 +18°C° 0 mm 1 mps 752 mmHg 87%
01:00 +18°C° 0 mm 1 mps 752 mmHg 88%
02:00 +16°C° 0 mm 1 mps 752 mmHg 88%
03:00 +16°C° 0 mm 1 mps 752 mmHg 88%
04:00 +16°C° 0 mm 1 mps 752 mmHg 88%
05:00 +19°C° 0 mm 1 mps 752 mmHg 81%
06:00 +21°C° 0 mm 1 mps 752 mmHg 74%
07:00 +23°C° 0 mm 1 mps 751 mmHg 67%
08:00 +25°C° 0 mm 1 mps 751 mmHg 62%
09:00 +26°C° 0 mm 2 mps 751 mmHg 56%
10:00 +28°C° 0 mm 2 mps 751 mmHg 50%
11:00 +28°C° 0 mm 2 mps 751 mmHg 48%
12:00 +29°C° 0 mm 2 mps 750 mmHg 45%
13:00 +29°C° 0 mm 2 mps 750 mmHg 43%
14:00 +29°C° 0 mm 2 mps 750 mmHg 45%
15:00 +29°C° 0 mm 2 mps 750 mmHg 48%
16:00 +28°C° 0 mm 2 mps 750 mmHg 50%
17:00 +27°C° 0 mm 1 mps 749 mmHg 54%
18:00 +26°C° 0 mm 1 mps 749 mmHg 58%
19:00 +26°C° 0 mm 1 mps 749 mmHg 62%
20:00 +24°C° 0 mm 1 mps 749 mmHg 63%
21:00 +23°C° 0 mm 2 mps 749 mmHg 65%
22:00 +21°C° 0 mm 2 mps 749 mmHg 67%
23:00 +20°C° 0 mm 2 mps 749 mmHg 68%

30 Junio, Miércoles

Tiempo Temperatura Precipitaciones Viento Presión Humedad
00:00 +20°C° 0 mm 2 mps 749 mmHg 69%
01:00 +19°C° 0 mm 2 mps 748 mmHg 70%
02:00 +19°C° 0 mm 2 mps 748 mmHg 72%
03:00 +19°C° 0 mm 2 mps 748 mmHg 73%
04:00 +18°C° 0 mm 2 mps 748 mmHg 75%
05:00 +20°C° 0 mm 2 mps 748 mmHg 70%
06:00 +23°C° 0 mm 2 mps 748 mmHg 66%
07:00 +24°C° 0 mm 2 mps 748 mmHg 62%
08:00 +26°C° 0 mm 2 mps 748 mmHg 59%
09:00 +27°C° 0 mm 1 mps 748 mmHg 55%
10:00 +28°C° 0 mm 1 mps 747 mmHg 52%
11:00 +29°C° 0 mm 1 mps 747 mmHg 52%
12:00 +29°C° 0 mm 2 mps 747 mmHg 51%
13:00 +29°C° 0 mm 3 mps 747 mmHg 50%
14:00 +28°C° 0.4 mm 3 mps 747 mmHg 58%
15:00 +27°C° 0.4 mm 4 mps 747 mmHg 66%
16:00 +25°C° 0.4 mm 5 mps 747 mmHg 74%
17:00 +23°C° 0.2 mm 4 mps 747 mmHg 75%
18:00 +22°C° 0.2 mm 4 mps 747 mmHg 76%
19:00 +21°C° 0.2 mm 3 mps 747 mmHg 77%
20:00 +19°C° 0 mm 4 mps 748 mmHg 81%
21:00 +18°C° 0 mm 4 mps 748 mmHg 85%
22:00 +15°C° 0 mm 5 mps 748 mmHg 89%
23:00 +14°C° 0 mm 4 mps 748 mmHg 90%
Mostrar más

Necesitamos Su Consentimiento

Meteoprog y nuestros Proveedores de Servicios pueden almacenar y acceder a sus datos personales como cookies, identificadores de dispositivo u otras tecnologías similares de su dispositivo y procesar dichos datos para personalizar contenido y anuncios, además de ofrecer funciones de redes sociales y analizar el tráfico.

  • Almacenar y/o acceder a información en su dispositivo

    Se puede almacenar o acceder a cookies, identificadores de dispositivo u otra información de su dispositivo para los fines anteriormente indicados.

  • Anuncios y contenido personalizados, medición de anuncios y contenido, percepciones del público, y desarrollo de productos

    Los anuncios y el contenido pueden personalizarse en base a su perfil. Se pueden añadir más datos para personalizar mejor los anuncios y contenidos. Se puede medir el rendimiento de los anuncios y contenidos. Se puede obtener la percepción sobre el público que ha visto los anuncios y contenidos. Dichos datos pueden usarse para desarrollar o mejorar la experiencia del usuario, sistemas y software.

Al hacer clic en ‘Estoy De Acuerdo’ usted permitirá el uso de las cookies, identificadores de dispositivo, balizas web u otras tecnologías similares indicadas. Su configuración puede cambiarse desde el navegador de su dispositivo.

Para ciertos fines, los intereses legítimos pueden ser considerados por encima del consentimiento. Puede leer más sobre ello en nuestra Política de Privacidad y Cookies.